Flag for Romania Weather past 2 weeks in Timișoara, Romania

Now
66 °F

Clear.


Feels Like: 66 °F
Forecast: 62 / 96 °F
Wind: 3 mph from East

Location: Timisoara Airport

Current Time: Aug 29, 2015 at 1:20:00 AM

Latest Report: Aug 29, 2015 at 12:30 AM


Visibility: 10 mi

Pressure: 30.12 "Hg

Humidity: 83%

Dew point: 61 °F

Location of TimișoaraLocation

Historic Weather in Timișoara — Graph

°F

Timișoara temperature yesterday

Maximum temperature yesterday: 95 °F (at 5:30 PM)
Minimum temperature yesterday: 63 °F (at 3:30 AM)
Average temperature yesterday: 78 °F

Past Weeks' High & Low Weather Summary

 TemperatureHumidityPressure
High99 °F (Aug 15, 5:00 PM)100% (Aug 17, 1:00 AM)30.18 "Hg (Aug 17, 1:00 AM)
Low57 °F (Aug 24, 3:00 AM)16% (Aug 15, 6:30 PM)29.68 "Hg (Aug 16, 5:00 PM)
Average72 °F71%29.97 "Hg
* Reported Aug 13 11:00 PM — Aug 28 11:30 PM, Timișoara, Weather by CustomWeather, © 2015

Note: Actual official high and low records may vary slightly from our data, if they occured in-between our weather recording intervals... More about our weather records

Advertising

Timișoara weather history for previous 24 hours

 ConditionsComfort  
Time TempWeatherWind HumidityBarometerVisibility
11:30 PM
Fri, Aug 28
70 °FClear.5 mph73%30.12 "Hg10 mi
11:00 PM72 °FClear.7 mph65%30.09 "Hg10 mi
10:30 PM73 °FClear.5 mph65%30.09 "Hg10 mi
10:00 PM75 °FClear.5 mph57%30.09 "Hg10 mi
9:30 PM79 °FClear.2 mph51%30.09 "Hg10 mi
9:00 PM84 °FSunny.1 mph31%30.09 "Hg10 mi
8:30 PM88 °FPassing clouds.3 mph25%30.09 "HgN/A
8:00 PM90 °FSunny.2 mph29%30.07 "Hg10 mi
7:30 PM91 °FSunny.1 mph24%30.07 "Hg10 mi
7:00 PM93 °FSunny.2 mph21%30.07 "Hg10 mi
6:30 PM93 °FPassing clouds.3 mph19%30.07 "HgN/A
6:00 PM93 °FSunny.2 mph17%30.07 "Hg10 mi
5:30 PM95 °FPassing clouds.5 mph18%30.07 "HgN/A
5:00 PM93 °FPassing clouds.3 mph19%30.07 "HgN/A
4:30 PM93 °FPassing clouds.6 mph16%30.07 "HgN/A
4:00 PM93 °FPassing clouds.3 mph19%30.09 "HgN/A
3:30 PM93 °FPassing clouds.5 mph23%30.09 "HgN/A
3:00 PM91 °FPassing clouds.7 mph21%30.09 "HgN/A
2:30 PM91 °FPassing clouds.5 mph24%30.09 "HgN/A
2:00 PM90 °FPassing clouds.7 mph24%30.09 "HgN/A
1:30 PM90 °FPassing clouds.8 mph29%30.09 "HgN/A
1:00 PM88 °FPassing clouds.8 mph29%30.09 "HgN/A
12:30 PM86 °FPassing clouds.8 mph35%30.12 "HgN/A
12:00 PM86 °FPassing clouds.7 mph33%30.12 "HgN/A
11:30 AM84 °FSunny.7 mph35%30.12 "Hg10 mi
11:00 AM82 °FSunny.7 mph45%30.12 "Hg10 mi
10:30 AM79 °FSunny.7 mph54%30.12 "Hg10 mi
10:00 AM77 °FPassing clouds.8 mph57%30.12 "HgN/A
9:30 AM75 °FSunny.9 mph61%30.09 "Hg10 mi
9:00 AM73 °FSunny.8 mph61%30.09 "Hg10 mi
8:30 AM70 °FSunny.8 mph73%30.09 "Hg10 mi
8:00 AM68 °FSunny.6 mph78%30.09 "Hg10 mi
7:30 AM64 °FClear.6 mph83%30.09 "Hg10 mi
7:00 AM63 °FClear.5 mph88%30.09 "Hg10 mi
6:00 AM64 °FClear.5 mph83%30.07 "Hg10 mi
5:30 AM63 °FClear.6 mph88%30.07 "Hg10 mi
5:00 AM64 °FClear.5 mph83%30.07 "Hg10 mi
4:30 AM64 °FClear.6 mph83%30.07 "Hg10 mi
4:00 AM64 °FMild.5 mph83%30.07 "HgN/A
3:30 AM63 °FClear.5 mph88%30.07 "Hg10 mi
3:00 AM64 °FClear.6 mph83%30.07 "Hg10 mi
2:30 AM64 °FClear.5 mph83%30.07 "Hg10 mi
2:00 AM66 °FMild.5 mph78%30.07 "HgN/A
1:30 AM64 °FClear.5 mph83%30.09 "Hg10 mi
1:00 AM66 °FClear.3 mph78%30.09 "Hg10 mi
Weather by CustomWeather, © 2015

See weather overviewHow to use our weather pages